Flag for Greece Weather past 2 weeks in Iráklion, Crete, Greece

Now
55 °F

Partly cloudy.


Feels Like: 53 °F
Forecast: 48 / 63 °F
Wind: 8 mph from Southwest

Location: Heraklion Airport

Current Time: Jan 29, 2015 at 3:23:55 AM

Latest Report: Jan 29, 2015 at 2:20 AM


Visibility: N/A

Pressure: 29.77 "Hg

Humidity: 72%

Dew point: 46 °F

Location of IráklionLocation

Historic Weather in Iráklion — Graph

°F

Iráklion temperature yesterday

Maximum temperature yesterday: 61 °F (at 12:50 PM)
Minimum temperature yesterday: 45 °F (at 6:50 AM)
Average temperature yesterday: 54 °F

Past Weeks' High & Low Weather Summary

 TemperatureHumidityPressure
High73 °F (Jan 21, 12:50 PM)94% (Jan 14, 11:50 AM)30.33 "Hg (Jan 14, 11:50 AM)
Low45 °F (Jan 18, 1:50 AM)28% (Jan 22, 5:50 PM)29.77 "Hg (Jan 23, 2:50 PM)
Average57 °F69%30.01 "Hg
* Reported Jan 14 1:20 AM — Jan 29 1:50 AM, Iráklion, Weather by CustomWeather, © 2014

Note: Actual official high and low records may vary slightly from our data, if they occured in-between our weather recording intervals... More about our weather records

Advertising

Iráklion weather history for previous 24 hours

 ConditionsComfort  
Time TempWeatherWind HumidityBarometerVisibility
1:50 AM
Jan 29
55 °FLight rain. Partly cloudy.10 mph72%29.77 "HgN/A
1:20 AM54 °FPartly cloudy.14 mph67%29.77 "HgN/A
12:50 AM54 °FPartly cloudy.13 mph67%29.77 "HgN/A
12:20 AM54 °FPartly cloudy.16 mph67%29.77 "HgN/A
11:50 PM
Jan 28
54 °FPartly cloudy.16 mph67%29.77 "HgN/A
11:20 PM52 °FPartly cloudy.14 mph72%29.80 "HgN/A
10:50 PM52 °FPartly cloudy.13 mph72%29.80 "HgN/A
10:20 PM52 °FPartly cloudy.17 mph72%29.80 "HgN/A
9:50 PM52 °FPassing clouds.18 mph72%29.80 "HgN/A
9:20 PM55 °FPassing clouds.15 mph67%29.83 "HgN/A
8:50 PM55 °FPassing clouds.14 mph67%29.83 "HgN/A
8:20 PM55 °FPassing clouds.7 mph63%29.83 "HgN/A
7:50 PM55 °FPassing clouds.5 mph63%29.83 "HgN/A
7:20 PM54 °FPassing clouds.3 mph77%29.83 "HgN/A
6:50 PM54 °FPassing clouds.3 mph77%29.83 "HgN/A
6:20 PM55 °FPassing clouds.6 mph77%29.83 "HgN/A
5:50 PM55 °FPassing clouds.3 mph77%29.83 "HgN/A
4:50 PM57 °FScattered clouds.3 mph72%29.83 "HgN/A
4:20 PM57 °FPartly sunny.5 mph72%29.83 "HgN/A
3:50 PM57 °FPartly sunny.6 mph72%29.83 "HgN/A
3:20 PM59 °FScattered clouds.9 mph68%29.83 "HgN/A
2:50 PM59 °FScattered clouds.12 mph68%29.83 "HgN/A
2:20 PM59 °FScattered clouds.14 mph59%29.83 "HgN/A
1:50 PM59 °FScattered clouds.14 mph59%29.83 "HgN/A
1:20 PM59 °FScattered clouds.14 mph59%29.86 "HgN/A
12:50 PM61 °FScattered clouds.12 mph55%29.86 "HgN/A
12:20 PM59 °FScattered clouds.9 mph63%29.86 "HgN/A
11:50 AM59 °FScattered clouds.6 mph63%29.86 "HgN/A
11:20 AM59 °FScattered clouds.7 mph55%29.86 "HgN/A
10:50 AM59 °FScattered clouds.7 mph59%29.86 "HgN/A
10:20 AM55 °FScattered clouds.9 mph63%29.86 "HgN/A
9:50 AM55 °FScattered clouds.9 mph63%29.86 "HgN/A
9:20 AM55 °FScattered clouds.8 mph63%29.86 "HgN/A
8:50 AM54 °FScattered clouds.7 mph63%29.86 "HgN/A
8:20 AM48 °FScattered clouds.6 mph71%29.83 "HgN/A
7:50 AM48 °FScattered clouds.6 mph71%29.83 "HgN/A
7:20 AM45 °FPassing clouds.6 mph81%29.77 "HgN/A
6:50 AM45 °FPassing clouds.8 mph81%29.77 "HgN/A
6:20 AM48 °FPassing clouds.5 mph76%29.77 "HgN/A
5:20 AM48 °FPassing clouds.12 mph76%29.77 "HgN/A
4:50 AM48 °FPassing clouds.12 mph76%29.77 "HgN/A
4:20 AM52 °FPartly cloudy.12 mph72%29.77 "HgN/A
3:20 AM52 °FLight rain. Partly cloudy.8 mph67%29.83 "HgN/A
Weather by CustomWeather, © 2014

See weather overviewHow to use our weather pages